Flag for U.S.A. Weather past 2 weeks in Lexington, North Carolina, U.S.A.

Now
72 °F

Clear.


Feels Like: 67 °F
Forecast: 71 / 87 °F
Wind: No wind

Location: Davidson County Airport

Current Time: Jul 29, 2015 at 1:47:25 AM

Latest Report: Jul 29, 2015 at 1:15 AM


Visibility: 7 mi

Pressure: 30.00 "Hg

Humidity: 97%

Dew point: 71 °F

Location of LexingtonLocation

Historic Weather in Lexington — Graph

°F

Lexington temperature yesterday

Maximum temperature yesterday: 90 °F (at 3:55 PM)
Minimum temperature yesterday: 70 °F (at 5:15 AM)
Average temperature yesterday: 79 °F

Past Weeks' High & Low Weather Summary

 TemperatureHumidityPressure
High96 °F (Jul 20, 3:55 PM)99% (Jul 20, 1:35 AM)30.12 "Hg (Jul 20, 1:35 AM)
Low65 °F (Jul 25, 6:15 AM)36% (Jul 20, 4:35 PM)29.67 "Hg (Jul 14, 4:55 PM)
Average78 °F74%29.94 "Hg
* Reported Jul 13 11:15 PM — Jul 28 11:55 PM, Lexington, Weather by CustomWeather, © 2015

Note: Actual official high and low records may vary slightly from our data, if they occured in-between our weather recording intervals... More about our weather records

Advertising

Lexington weather history for previous 24 hours

 ConditionsComfort  
Time TempWeatherWind HumidityBarometerVisibility
11:55 PM
Tue, Jul 28
74 °FPassing clouds.No wind93%30.00 "Hg10 mi
10:55 PM75 °FPassing clouds.No wind89%30.02 "Hg10 mi
10:15 PM77 °FClear.No wind83%30.01 "Hg10 mi
9:55 PM76 °FClear.No wind85%30.01 "Hg10 mi
9:35 PM77 °FClear.No wind82%29.99 "Hg10 mi
8:55 PM78 °FSunny.No wind83%29.99 "Hg10 mi
8:15 PM79 °FSunny.No wind78%29.97 "Hg10 mi
7:55 PM80 °FBroken clouds.No wind75%29.98 "Hg10 mi
7:35 PM80 °FPartly sunny.No wind76%29.99 "Hg10 mi
7:10 PM82 °FPartly sunny.No wind70%29.98 "Hg10 mi
6:55 PM83 °FScattered clouds.No wind68%29.98 "Hg10 mi
6:15 PM83 °FSunny.3 mph64%29.97 "Hg10 mi
5:55 PM84 °FSunny.7 mph61%29.96 "Hg10 mi
5:15 PM87 °FSunny.9 mph59%29.97 "Hg10 mi
4:55 PM87 °FSunny.9 mph60%29.97 "Hg10 mi
4:35 PM88 °FScattered clouds.9 mph55%29.96 "Hg10 mi
4:15 PM89 °FScattered clouds.9 mph57%29.97 "Hg10 mi
3:55 PM90 °FSunny.6 mph55%29.97 "Hg10 mi
3:35 PM89 °FSunny.6 mph58%29.98 "Hg10 mi
3:15 PM88 °FSunny.8 mph59%29.98 "Hg10 mi
2:15 PM89 °FBroken clouds.8 mph62%29.99 "Hg10 mi
1:55 PM86 °FLight rain. Broken clouds.6 mph67%30.00 "Hg10 mi
1:35 PM86 °FScattered clouds.3 mph69%30.01 "Hg10 mi
1:15 PM85 °FPartly sunny.No wind69%30.02 "Hg10 mi
12:55 PM86 °FBroken clouds.3 mph64%30.02 "Hg10 mi
12:15 PM85 °FPartly sunny.5 mph66%30.03 "Hg10 mi
11:55 AM87 °FPartly sunny.3 mph61%30.03 "Hg10 mi
11:35 AM84 °FScattered clouds.5 mph67%30.03 "Hg10 mi
11:15 AM84 °FScattered clouds.5 mph68%30.03 "Hg10 mi
10:55 AM83 °FScattered clouds.3 mph67%30.03 "Hg10 mi
10:35 AM83 °FScattered clouds.3 mph73%30.03 "Hg10 mi
10:15 AM82 °FScattered clouds.3 mph74%30.03 "Hg10 mi
9:55 AM80 °FSunny.3 mph78%30.03 "Hg10 mi
9:35 AM80 °FSunny.3 mph81%30.03 "Hg10 mi
9:15 AM78 °FSunny.No wind83%30.03 "Hg10 mi
8:55 AM77 °FSunny.5 mph85%30.04 "Hg10 mi
8:35 AM76 °FSunny.No wind87%30.03 "Hg10 mi
8:15 AM75 °FSunny.No wind87%30.03 "Hg10 mi
7:55 AM74 °FSunny.No wind91%30.03 "Hg10 mi
7:35 AM72 °FSunny.No wind96%30.03 "Hg7 mi
7:15 AM71 °FFog.No wind98%30.03 "Hg5 mi
6:55 AM70 °FFog.No wind99%30.03 "Hg4 mi
6:35 AM70 °FFog.No wind98%30.03 "Hg5 mi
6:15 AM70 °FFog.No wind98%30.01 "Hg5 mi
5:55 AM70 °FFog.No wind98%30.00 "Hg5 mi
5:15 AM70 °FFog.No wind98%30.00 "Hg5 mi
4:55 AM70 °FFog.No wind98%30.00 "Hg5 mi
4:35 AM70 °FFog.No wind98%30.00 "Hg5 mi
4:15 AM70 °FFog.No wind99%30.01 "Hg5 mi
3:55 AM70 °FFog.No wind98%30.01 "Hg5 mi
3:15 AM71 °FFog.No wind98%30.02 "Hg5 mi
2:55 AM71 °FClear.No wind98%30.02 "Hg7 mi
2:15 AM71 °FPassing clouds.No wind97%30.03 "Hg7 mi
1:55 AM72 °FPassing clouds.No wind96%30.04 "Hg10 mi
1:15 AM72 °FClear.No wind94%30.03 "Hg10 mi
Weather by CustomWeather, © 2015

See weather overviewHow to use our weather pages